Springfield, CO

8:16 PM MDT on September 28, 2016 (GMT -0600)
Springfield

Weather History for KSPD - July, 2013

Change the Weather History Date:

Tuesday, July 23, 2013

  Actual Average Record
Temperature  
Mean Temperature 84 °F -  
Max Temperature 102 °F 91 °F 103 °F (2016)
Min Temperature 66 °F 62 °F 55 °F (2006)
Degree Days  
Heating Degree Days 0 0  
Month to date heating degree days 0 0  
Since 1 June heating degree days 19 21  
Since 1 July heating degree days 0 0  
Cooling Degree Days 19 12  
Month to date cooling degree days 275 260  
Year to date cooling degree days 743 522  
Since 1 June cooling degree days 626 468  
Growing Degree Days 33 (Base 50)    
Moisture  
Dew Point 51 °F    
Average Humidity 42    
Maximum Humidity 69    
Minimum Humidity 14    
Precipitation  
Precipitation 0.00 in 0.08 in 0.14 in (2001)
Month to date precipitation 1.96  
Year to date precipitation 5.68  
Sea Level Pressure  
Sea Level Pressure 29.77 in    
Wind  
Wind Speed 11 mph (East)    
Max Wind Speed 23 mph    
Max Gust Speed 28 mph    
T = Trace of Precipitation, MM = Missing Value Source: NWS Daily Summary

Daily Weather History Graph

Daily Weather History Graph

Search for Another Location

Airport or City:

Trip Planner

Search our weather history database for the weather conditions in past years. The results will help you decide how hot, cold, wet, or windy it might be!

Date:

Astronomy

Jul. 23, 2013 Rise Set
Actual Time 5:48 AM MDT 8:05 PM MDT
Civil Twilight 5:18 AM MDT 8:34 PM MDT
Nautical Twilight 4:42 AM MDT 9:11 PM MDT
Astronomical Twilight 4:02 AM MDT 9:50 PM MDT
Moon 8:38 PM MDT (7/23) 6:56 AM MDT (7/23)
Length of Visible Light 15h 16m
Length of Day
14h 17m
Full, 99% of the Moon is Illuminated
Jul 23
Full
Jul 29
Last Quarter
Aug 6
New
Aug 14
First Quarter
Aug 20
Full

Hourly Weather History & Observations

Time (MDT) Temp. Heat Index Dew Point Humidity Pressure Visibility Wind Dir Wind Speed Gust Speed Precip Events Conditions
12:56 AM 75.9 °F - 55.9 °F 50% 29.77 in - SW 19.6 mph - N/A   Unknown
1:56 AM 75.9 °F - 55.9 °F 50% 29.76 in - SW 16.1 mph 24.2 mph N/A   Unknown
2:56 AM 73.0 °F - 55.9 °F 55% 29.76 in - SW 12.7 mph - N/A   Unknown
3:56 AM 71.1 °F - 57.0 °F 61% 29.76 in - SW 10.4 mph - N/A   Unknown
4:56 AM 68.0 °F - 57.0 °F 68% 29.76 in - WSW 10.4 mph - N/A   Unknown
5:56 AM 66.9 °F - 55.9 °F 68% 29.76 in - West 10.4 mph - N/A   Unknown
6:56 AM 73.0 °F - 53.1 °F 49% 29.75 in - West 9.2 mph - N/A   Unknown
7:56 AM 80.1 °F - 52.0 °F 38% 29.75 in - WSW 11.5 mph - N/A   Unknown
8:56 AM 89.1 °F - 51.1 °F 27% 29.75 in - WNW 6.9 mph - N/A   Unknown
9:56 AM 98.1 °F - 41.0 °F 14% 29.73 in - Variable 4.6 mph - N/A   Unknown
10:56 AM 99.0 °F - 45.0 °F 16% 29.74 in - ENE 12.7 mph 19.6 mph N/A   Unknown
11:10 AM 96.8 °F - 46.4 °F 18% 29.99 in - ENE 16.1 mph 27.6 mph N/A   Unknown
11:56 AM 98.1 °F - 46.0 °F 17% 29.75 in - ENE 13.8 mph - N/A   Unknown
12:56 PM 99.0 °F - 43.0 °F 15% 29.74 in - Variable 6.9 mph - N/A   Unknown
1:56 PM 100.9 °F - 42.1 °F 13% 29.74 in - NNE 6.9 mph - N/A   Unknown
2:56 PM 99.0 °F - 43.0 °F 15% 29.74 in - East 8.1 mph - N/A   Unknown
3:56 PM 100.9 °F - 44.1 °F 14% 29.73 in - NE 10.4 mph 17.3 mph N/A   Unknown
4:56 PM 100.0 °F - 46.9 °F 16% 29.73 in - ENE 16.1 mph 21.9 mph N/A   Unknown
5:56 PM 97.0 °F - 48.0 °F 19% 29.74 in - ENE 15.0 mph 23.0 mph N/A   Unknown
6:56 PM 93.0 °F - 46.9 °F 20% 29.75 in - ENE 15.0 mph - N/A   Unknown
7:56 PM 88.0 °F - 52.0 °F 29% 29.78 in - East 10.4 mph - N/A   Unknown
8:56 PM 82.0 °F - 51.1 °F 34% 29.81 in - Calm Calm - N/A   Unknown
9:56 PM 80.1 °F 80.2 °F 55.9 °F 43% 29.84 in - ESE 15.0 mph 20.7 mph N/A   Unknown
10:56 PM 75.9 °F - 64.0 °F 67% 29.85 in - East 12.7 mph 19.6 mph N/A   Unknown
11:56 PM 73.0 °F - 63.0 °F 71% 29.88 in - ENE 9.2 mph - N/A   Unknown